This demonstration page uses our WeatherBlox Daily Observations layout. Learn more.

Left ArrowRight Arrow

30.00354, -91.81873

Hourly Observations for August 15, 2022

Temp ( °F °C ) Dew Point ( °F °C ) Humidity (%) Winds ( mph kmh ) Pressure ( in mb ) Visibility ( mi km ) Precip ( " mm )
12:53 am 00:53 Clear 76 24.4 73 22.8 91 91 Calm 29.96 1015 10 16 0.00 0.00
1:53 am 01:53 Clear 77 25 74 23.3 90 90 Calm 29.95 1014 9 14 0.00 0.00
2:53 am 02:53 Clear 76 24.4 73 22.8 91 91 Calm 29.94 1014 10 16 0.00 0.00
3:53 am 03:53 Clear 75 23.9 72 22.2 90 90 Calm 29.94 1014 10 16 0.00 0.00
4:53 am 04:53 Clear 74 23.3 72 22.2 94 94 Calm 29.95 1014 8 13 0.00 0.00
5:53 am 05:53 Clear with Mist and Fog 74 23.3 72 22.2 94 94 Calm 29.95 1014 6 10 0.00 0.00
6:53 am 06:53 Sunny with Mist and Fog 75 23.9 73 22.8 94 94 Calm 29.97 1015 6 10 0.00 0.00
7:53 am 07:53 Sunny 79 26.1 75 23.9 88 88 Calm 29.98 1015 10 16 0.00 0.00
8:53 am 08:53 Sunny 83 28.3 76 24.4 79 79 WNW 5 7 29.98 1015 10 16 0.00 0.00
9:53 am 09:53 Sunny 86 30 74 23.3 67 67 NW 5 7 29.99 1016 10 16 0.00 0.00
10:53 am 10:53 Sunny 87 30.6 73 22.8 63 63 W 5 7 30.00 1016 10 16 0.00 0.00
11:53 am 11:53 Sunny 90 32.2 70 21.1 52 52 Calm 29.98 1015 10 16 0.00 0.00
12:53 pm 12:53 Sunny 91 32.8 71 21.7 52 52 SSW 3 6 29.98 1015 10 16 0.00 0.00
1:53 pm 13:53 Sunny 91 32.8 71 21.7 52 52 SW 6 9 29.96 1015 10 16 0.00 0.00
2:53 pm 14:53 Sunny 92 33.3 70 21.1 49 49 W 5 7 29.93 1014 10 16 0.00 0.00
3:53 pm 15:53 Sunny 94 34.4 70 21.1 46 46 Calm 29.92 1013 10 16 0.00 0.00
4:53 pm 16:53 Sunny 93 33.9 70 21.1 47 47 W 5 7 29.90 1013 10 16 0.00 0.00
5:53 pm 17:53 Partly Cloudy 91 32.8 70 21.1 50 50 SSW 9 15 29.89 1012 10 16 0.00 0.00
6:53 pm 18:53 Sunny 88 31.1 74 23.3 63 63 SSW 8 13 29.89 1012 10 16 0.00 0.00
7:53 pm 19:53 Clear 83 28.3 75 23.9 77 77 SSW 5 7 29.90 1012 10 16 0.00 0.00
8:53 pm 20:53 Clear 81 27.2 75 23.9 82 82 SW 3 6 29.91 1013 10 16 0.00 0.00
9:53 pm 21:53 Clear 80 26.7 75 23.9 85 85 SW 3 6 29.92 1013 10 16 0.00 0.00
10:53 pm 22:53 Clear 79 26.1 75 23.9 88 88 Calm 29.94 1014 10 16 0.00 0.00
11:53 pm 23:53 Clear 78 25.6 74 23.3 87 87 WSW 3 6 29.93 1014 10 16 0.00 0.00

Powered by AerisWeather